Flag for U.S.A. Weather past 2 weeks in Pasadena, Texas, U.S.A.

Now
86 °F

Partly sunny.


Feels Like: 87 °F
Forecast: 67 / 82 °F
Wind: 13 mph from South

Location: Houston / Ellington


UV Index: 5 (Moderate)

Visibility: 10 mi


Pressure: 29.87 "Hg

Humidity: 49%

Dew point: 64 °F

Location of PasadenaLocation

Historic Weather in Pasadena

°F

Pasadena temperature yesterday

Maximum temperature yesterday: 84 °F (at 4:50 PM)
Minimum temperature yesterday: 66 °F (at 12:50 AM)
Average temperature yesterday: 73 °F

Past Weeks' High & Low Weather Summary

 TemperatureHumidityPressure
High88 °F (Apr 23, 2:50 PM)100% (Apr 14, 1:50 PM)30.32 "Hg (Apr 14, 1:50 PM)
Low43 °F (Apr 15, 6:50 AM)25% (Apr 8, 7:50 PM)29.74 "Hg (Apr 13, 7:50 PM)
Average68 °F70%30.07 "Hg
* Reported Apr 8 4:50 PM — Apr 23 4:50 PM, Pasadena, Weather by CustomWeather, © 2014

Note: Actual official high and low records may vary slightly from our data, if they occured in-between our weather recording intervals... More about our weather records

Advertising

Historic Weather Conditions — Data for Previous 24 hours

 ConditionsComfort  
Time TempWeatherWind HumidityBarometerVisibility
4:50 PM
Apr 23
88 °FPartly sunny.13 mph49%29.89 "Hg10 mi
3:50 PM88 °FPartly sunny.12 mph49%29.89 "Hg11 mi
2:50 PM88 °FPartly sunny.8 mph49%29.92 "Hg10 mi
1:50 PM86 °FPartly sunny.7 mph55%29.94 "Hg10 mi
12:50 PM82 °FPartly sunny.7 mph62%29.96 "Hg8 mi
11:50 AM79 °FPartly sunny.9 mph70%29.98 "Hg9 mi
10:50 AM73 °FBroken clouds.5 mph89%30.00 "Hg7 mi
9:50 AM72 °FFog.6 mph94%30.00 "Hg3 mi
8:50 AM70 °FFog.3 mph100%29.98 "Hg0 mi
7:50 AM68 °FFog.5 mph100%29.97 "Hg0 mi
6:50 AM66 °FFog.No wind100%29.96 "Hg1 mi
5:50 AM68 °FFog.No wind94%29.94 "Hg1 mi
4:50 AM68 °FFog.No wind94%29.94 "Hg1 mi
3:50 AM68 °FFog.No wind94%29.94 "Hg1 mi
2:50 AM68 °FFog.No wind94%29.95 "Hg1 mi
1:50 AM68 °FFog.3 mph94%29.97 "Hg6 mi
12:50 AM68 °FPassing clouds.6 mph94%29.97 "Hg10 mi
11:50 PM
Apr 22
70 °FClear.No wind88%29.95 "Hg10 mi
10:50 PM72 °FClear.No wind88%29.95 "Hg10 mi
9:50 PM72 °FClear.3 mph88%29.94 "Hg10 mi
8:50 PM79 °FSunny.3 mph70%29.92 "Hg10 mi
7:50 PM79 °FPassing clouds.6 mph61%29.91 "Hg10 mi
6:50 PM82 °FScattered clouds.5 mph51%29.90 "Hg10 mi
Weather by CustomWeather, © 2014

See weather overview